• In Belarus
  • List of Countries
  • For 7 days
  • Water Temperature
  • Satellite Maps
  • Weather Map
  • Weather Widgets
  • user-avatar
    Login

    Hourly Weather Durres

    Today, 23 October, Monday

    Time Temperature Precipitation Wind Pressure Humidity
    00:00 +17°C° 0.6 mm 6 mps 756 mmHg 74%
    01:00 +17°C° 0.6 mm 7 mps 755 mmHg 72%
    02:00 +17°C° 1.6 mm 7 mps 755 mmHg 72%
    03:00 +17°C° 1.6 mm 7 mps 754 mmHg 73%
    04:00 +17°C° 1.6 mm 7 mps 754 mmHg 73%
    05:00 +17°C° 0.8 mm 6 mps 753 mmHg 74%
    06:00 +17°C° 0.8 mm 6 mps 753 mmHg 75%
    07:00 +17°C° 0.8 mm 6 mps 753 mmHg 76%
    08:00 +17°C° 0.4 mm 6 mps 752 mmHg 74%
    09:00 +19°C° 0.4 mm 6 mps 752 mmHg 71%
    10:00 +20°C° 0.4 mm 7 mps 752 mmHg 69%
    11:00 +20°C° 0.6 mm 6 mps 752 mmHg 67%
    12:00 +20°C° 0.6 mm 6 mps 751 mmHg 66%
    13:00 +19°C° 0.6 mm 5 mps 751 mmHg 64%
    14:00 +19°C° 0.8 mm 5 mps 751 mmHg 67%
    15:00 +18°C° 0.8 mm 4 mps 751 mmHg 69%
    16:00 +17°C° 0.8 mm 3 mps 750 mmHg 72%
    17:00 +17°C° 0.6 mm 3 mps 751 mmHg 74%
    18:00 +16°C° 0.6 mm 3 mps 751 mmHg 76%
    19:00 +14°C° 0.6 mm 3 mps 751 mmHg 78%
    20:00 +14°C° 0.7 mm 4 mps 751 mmHg 78%
    21:00 +13°C° 0.7 mm 4 mps 751 mmHg 79%
    22:00 +13°C° 0.7 mm 5 mps 751 mmHg 79%
    23:00 +13°C° 0.3 mm 5 mps 752 mmHg 78%

    Tomorrow, 24 October, Tuesday

    Time Temperature Precipitation Wind Pressure Humidity
    00:00 +11°C° 0.3 mm 6 mps 752 mmHg 77%
    01:00 +11°C° 0.3 mm 6 mps 752 mmHg 77%
    02:00 +11°C° 0.1 mm 6 mps 751 mmHg 76%
    03:00 +11°C° 0.1 mm 6 mps 751 mmHg 76%
    04:00 +11°C° 0.1 mm 6 mps 751 mmHg 76%
    05:00 +11°C° 0 mm 7 mps 751 mmHg 75%
    06:00 +11°C° 0 mm 7 mps 752 mmHg 75%
    07:00 +11°C° 0 mm 7 mps 752 mmHg 74%
    08:00 +12°C° 0 mm 7 mps 752 mmHg 69%
    09:00 +14°C° 0 mm 7 mps 752 mmHg 64%
    10:00 +15°C° 0 mm 8 mps 752 mmHg 59%
    11:00 +16°C° 0.1 mm 8 mps 752 mmHg 56%
    12:00 +16°C° 0.1 mm 8 mps 752 mmHg 54%
    13:00 +17°C° 0.1 mm 8 mps 753 mmHg 52%
    14:00 +16°C° 0.1 mm 8 mps 753 mmHg 55%
    15:00 +15°C° 0.1 mm 8 mps 753 mmHg 58%
    16:00 +15°C° 0.1 mm 7 mps 753 mmHg 61%
    17:00 +14°C° 0.2 mm 7 mps 753 mmHg 64%
    18:00 +12°C° 0.2 mm 7 mps 754 mmHg 68%
    19:00 +12°C° 0.2 mm 7 mps 754 mmHg 71%
    20:00 +12°C° 0.1 mm 7 mps 755 mmHg 72%
    21:00 +11°C° 0.1 mm 6 mps 755 mmHg 73%
    22:00 +11°C° 0.1 mm 6 mps 755 mmHg 73%
    23:00 +11°C° 0 mm 6 mps 755 mmHg 73%

    Day after tomorrow, 25 October, Wednesday

    Time Temperature Precipitation Wind Pressure Humidity
    00:00 +11°C° 0 mm 6 mps 756 mmHg 73%
    01:00 +10°C° 0 mm 7 mps 756 mmHg 73%
    02:00 +10°C° 0 mm 7 mps 756 mmHg 74%
    03:00 +10°C° 0 mm 7 mps 757 mmHg 75%
    04:00 +10°C° 0 mm 7 mps 757 mmHg 75%
    05:00 +11°C° 0 mm 7 mps 757 mmHg 75%
    06:00 +11°C° 0 mm 7 mps 758 mmHg 74%
    07:00 +12°C° 0 mm 7 mps 759 mmHg 73%
    08:00 +15°C° 0 mm 7 mps 759 mmHg 67%
    09:00 +17°C° 0 mm 7 mps 760 mmHg 60%
    10:00 +20°C° 0 mm 8 mps 760 mmHg 53%
    11:00 +21°C° 0 mm 8 mps 760 mmHg 50%
    12:00 +21°C° 0 mm 8 mps 760 mmHg 47%
    13:00 +22°C° 0 mm 8 mps 761 mmHg 43%
    14:00 +22°C° 0 mm 8 mps 761 mmHg 46%
    15:00 +21°C° 0 mm 9 mps 761 mmHg 49%
    16:00 +19°C° 0 mm 9 mps 762 mmHg 52%
    17:00 +18°C° 0 mm 9 mps 762 mmHg 55%
    18:00 +17°C° 0 mm 8 mps 763 mmHg 58%
    19:00 +15°C° 0 mm 8 mps 764 mmHg 61%
    20:00 +15°C° 0 mm 7 mps 764 mmHg 62%
    21:00 +14°C° 0 mm 7 mps 765 mmHg 64%
    22:00 +14°C° 0 mm 6 mps 765 mmHg 66%
    23:00 +14°C° 0 mm 6 mps 766 mmHg 67%

    26 October, Thursday

    Time Temperature Precipitation Wind Pressure Humidity
    00:00 +13°C° 0 mm 5 mps 766 mmHg 68%
    01:00 +13°C° 0 mm 5 mps 766 mmHg 69%
    02:00 +13°C° 0 mm 5 mps 766 mmHg 69%
    03:00 +13°C° 0 mm 5 mps 766 mmHg 69%
    04:00 +12°C° 0 mm 4 mps 767 mmHg 70%
    05:00 +13°C° 0 mm 4 mps 767 mmHg 69%
    06:00 +13°C° 0 mm 4 mps 767 mmHg 68%
    07:00 +13°C° 0 mm 3 mps 767 mmHg 67%
    08:00 +17°C° 0 mm 3 mps 767 mmHg 59%
    09:00 +19°C° 0 mm 3 mps 767 mmHg 51%
    10:00 +23°C° 0 mm 2 mps 767 mmHg 43%
    11:00 +24°C° 0 mm 3 mps 767 mmHg 41%
    12:00 +25°C° 0 mm 4 mps 767 mmHg 39%
    13:00 +26°C° 0 mm 4 mps 766 mmHg 37%
    14:00 +25°C° 0 mm 4 mps 766 mmHg 42%
    15:00 +23°C° 0 mm 4 mps 766 mmHg 47%
    16:00 +22°C° 0 mm 5 mps 766 mmHg 52%
    17:00 +20°C° 0 mm 4 mps 766 mmHg 55%
    18:00 +19°C° 0 mm 4 mps 766 mmHg 58%
    19:00 +17°C° 0 mm 3 mps 766 mmHg 62%
    20:00 +17°C° 0 mm 3 mps 767 mmHg 60%
    21:00 +17°C° 0 mm 3 mps 767 mmHg 58%
    22:00 +17°C° 0 mm 2 mps 767 mmHg 56%
    23:00 +17°C° 0 mm 2 mps 766 mmHg 56%

    27 October, Friday

    Time Temperature Precipitation Wind Pressure Humidity
    00:00 +16°C° 0 mm 2 mps 766 mmHg 55%
    01:00 +16°C° 0 mm 2 mps 766 mmHg 54%
    02:00 +16°C° 0 mm 2 mps 765 mmHg 54%
    03:00 +16°C° 0 mm 1 mps 765 mmHg 53%
    04:00 +15°C° 0 mm 1 mps 765 mmHg 53%
    05:00 +16°C° 0 mm 1 mps 764 mmHg 52%
    06:00 +16°C° 0 mm 1 mps 764 mmHg 52%
    07:00 +16°C° 0 mm 1 mps 764 mmHg 51%
    08:00 +19°C° 0 mm 1 mps 764 mmHg 47%
    09:00 +21°C° 0 mm 1 mps 763 mmHg 42%
    10:00 +23°C° 0 mm 1 mps 763 mmHg 38%
    11:00 +24°C° 0 mm 1 mps 762 mmHg 38%
    12:00 +24°C° 0 mm 2 mps 761 mmHg 38%
    13:00 +25°C° 0 mm 2 mps 761 mmHg 38%
    14:00 +24°C° 0 mm 2 mps 760 mmHg 43%
    15:00 +23°C° 0 mm 1 mps 759 mmHg 48%
    16:00 +22°C° 0 mm 1 mps 759 mmHg 53%
    17:00 +20°C° 0 mm 1 mps 759 mmHg 59%
    18:00 +18°C° 0 mm 2 mps 759 mmHg 65%
    19:00 +16°C° 0 mm 2 mps 758 mmHg 71%
    20:00 +16°C° 0 mm 2 mps 758 mmHg 70%
    21:00 +16°C° 0 mm 2 mps 758 mmHg 69%
    22:00 +16°C° 0 mm 2 mps 758 mmHg 68%
    23:00 +16°C° 0 mm 2 mps 757 mmHg 66%

    28 October, Saturday

    Time Temperature Precipitation Wind Pressure Humidity
    00:00 +16°C° 0 mm 2 mps 757 mmHg 64%
    01:00 +16°C° 0 mm 2 mps 757 mmHg 61%
    02:00 +16°C° 0 mm 2 mps 757 mmHg 60%
    03:00 +16°C° 0 mm 2 mps 757 mmHg 58%
    04:00 +16°C° 0 mm 2 mps 757 mmHg 57%
    05:00 +16°C° 0 mm 3 mps 757 mmHg 57%
    06:00 +16°C° 0 mm 3 mps 757 mmHg 58%
    07:00 +16°C° 0 mm 3 mps 757 mmHg 59%
    08:00 +18°C° 0 mm 3 mps 758 mmHg 52%
    09:00 +19°C° 0 mm 3 mps 758 mmHg 46%
    10:00 +21°C° 0 mm 4 mps 758 mmHg 40%
    11:00 +22°C° 0 mm 4 mps 758 mmHg 38%
    12:00 +23°C° 0 mm 4 mps 757 mmHg 37%
    13:00 +23°C° 0 mm 5 mps 757 mmHg 35%
    14:00 +22°C° 0 mm 5 mps 757 mmHg 38%
    15:00 +21°C° 0 mm 5 mps 757 mmHg 41%
    16:00 +20°C° 0 mm 5 mps 757 mmHg 44%
    17:00 +19°C° 0 mm 5 mps 757 mmHg 46%
    18:00 +16°C° 0 mm 5 mps 758 mmHg 49%
    19:00 +15°C° 0 mm 4 mps 758 mmHg 52%
    20:00 +14°C° 0 mm 4 mps 758 mmHg 51%
    21:00 +14°C° 0 mm 3 mps 758 mmHg 51%
    22:00 +15°C° 0 mm 2 mps 758 mmHg 50%
    23:00 +15°C° 0 mm 2 mps 758 mmHg 49%
    Show more